Data No, UTC Date,UTC Time,Latitude,Longitude,Course(deg),Temp(degC),Sal(psu)
527,2021/9/24,8:46,42-36.95N,141-37.10E,210,19.297,33.0487
528,2021/9/24,8:47,42-36.70N,141-36.91E,204,19.254,33.0856
529,2021/9/24,8:48,42-36.39N,141-36.90E,174,19.278,33.1335
530,2021/9/24,8:49,42-36.13N,141-37.07E,149,19.309,33.258
531,2021/9/24,8:50,42-35.91N,141-37.30E,142,19.329,33.2896
532,2021/9/24,8:51,42-35.68N,141-37.55E,140,19.361,33.2844
533,2021/9/24,8:52,42-35.44N,141-37.83E,139,19.364,33.286
534,2021/9/24,8:53,42-35.19N,141-38.11E,141,19.363,33.3343
535,2021/9/24,8:54,42-34.93N,141-38.39E,142,19.359,33.3663
536,2021/9/24,8:55,42-34.66N,141-38.66E,142,19.349,33.3859
537,2021/9/24,8:56,42-34.42N,141-38.97E,130,19.345,33.404
538,2021/9/24,8:57,42-34.23N,141-39.33E,124,19.351,33.4037
539,2021/9/24,8:58,42-34.04N,141-39.72E,123,19.382,33.4121
540,2021/9/24,8:59,42-33.85N,141-40.10E,123,19.407,33.4161
541,2021/9/24,9:00,42-33.65N,141-40.49E,124,19.425,33.4323
542,2021/9/24,9:01,42-33.45N,141-40.87E,125,19.457,33.4532
543,2021/9/24,9:02,42-33.24N,141-41.25E,126,19.483,33.4761
544,2021/9/24,9:03,42-33.03N,141-41.63E,126,19.503,33.4968
545,2021/9/24,9:04,42-32.81N,141-42.03E,127,19.496,33.5075
546,2021/9/24,9:05,42-32.60N,141-42.41E,126,19.527,33.5115
547,2021/9/24,9:06,42-32.38N,141-42.80E,126,19.508,33.5189
548,2021/9/24,9:07,42-32.17N,141-43.19E,126,19.492,33.5246
549,2021/9/24,9:08,42-31.95N,141-43.59E,126,19.462,33.5166
550,2021/9/24,9:09,42-31.72N,141-43.99E,127,19.452,33.5039
551,2021/9/24,9:10,42-31.50N,141-44.39E,127,19.452,33.4867
552,2021/9/24,9:11,42-31.27N,141-44.80E,126,19.458,33.4835
553,2021/9/24,9:12,42-31.05N,141-45.21E,126,19.452,33.4856
554,2021/9/24,9:13,42-30.82N,141-45.62E,127,19.442,33.4934
555,2021/9/24,9:14,42-30.58N,141-46.03E,127,19.422,33.5017
556,2021/9/24,9:15,42-30.35N,141-46.45E,127,19.401,33.4972
557,2021/9/24,9:16,42-30.12N,141-46.85E,127,19.393,33.4888
558,2021/9/24,9:17,42-29.88N,141-47.28E,127,19.357,33.4731
559,2021/9/24,9:18,42-29.65N,141-47.68E,127,19.493,33.4622
560,2021/9/24,9:19,42-29.42N,141-48.10E,126,19.546,33.4692
561,2021/9/24,9:20,42-29.18N,141-48.52E,126,19.519,33.4546
562,2021/9/24,9:21,42-28.95N,141-48.93E,127,19.448,33.4138
563,2021/9/24,9:22,42-28.72N,141-49.36E,126,19.382,33.4065
564,2021/9/24,9:23,42-28.49N,141-49.77E,126,19.343,33.4415
565,2021/9/24,9:24,42-28.26N,141-50.18E,126,19.322,33.4552
566,2021/9/24,9:25,42-28.03N,141-50.61E,126,19.318,33.4598
567,2021/9/24,9:26,42-27.81N,141-51.02E,126,19.356,33.4733
568,2021/9/24,9:27,42-27.58N,141-51.44E,126,19.372,33.4641
569,2021/9/24,9:28,42-27.35N,141-51.86E,127,19.436,33.4577
570,2021/9/24,9:29,42-27.11N,141-52.27E,127,19.45,33.4634
571,2021/9/24,9:30,42-26.88N,141-52.70E,126,19.523,33.4598
572,2021/9/24,9:31,42-26.65N,141-53.10E,127,19.652,33.47
573,2021/9/24,9:32,42-26.41N,141-53.52E,127,19.765,33.5049
574,2021/9/24,9:33,42-26.19N,141-53.92E,127,19.806,33.5422
575,2021/9/24,9:34,42-25.95N,141-54.34E,127,19.869,33.5518
576,2021/9/24,9:35,42-25.72N,141-54.75E,127,19.87,33.5622
577,2021/9/24,9:36,42-25.49N,141-55.15E,127,19.907,33.5392
578,2021/9/24,9:37,42-25.25N,141-55.57E,127,19.952,33.5292
579,2021/9/24,9:38,42-25.02N,141-55.97E,127,19.953,33.554
580,2021/9/24,9:39,42-24.78N,141-56.38E,128,19.953,33.5681
581,2021/9/24,9:40,42-24.54N,141-56.80E,127,19.948,33.5734
582,2021/9/24,9:41,42-24.31N,141-57.21E,127,19.969,33.5709
583,2021/9/24,9:42,42-24.07N,141-57.62E,127,19.979,33.5732
584,2021/9/24,9:43,42-23.84N,141-58.03E,127,19.974,33.5768
585,2021/9/24,9:44,42-23.59N,141-58.45E,128,19.993,33.5813
586,2021/9/24,9:45,42-23.36N,141-58.85E,128,20,33.5816
587,2021/9/24,9:46,42-23.12N,141-59.26E,128,19.981,33.5794
588,2021/9/24,9:47,42-22.88N,141-59.67E,127,19.965,33.5762
589,2021/9/24,9:48,42-22.65N,142-00.08E,128,19.957,33.5692
590,2021/9/24,9:49,42-22.40N,142-00.49E,128,19.96,33.5614
591,2021/9/24,9:50,42-22.17N,142-00.89E,127,19.952,33.5623
592,2021/9/24,9:51,42-21.93N,142-01.31E,127,19.919,33.5691
593,2021/9/24,9:52,42-21.70N,142-01.71E,128,19.895,33.5545
594,2021/9/24,9:53,42-21.46N,142-02.13E,127,19.867,33.5488
595,2021/9/24,9:54,42-21.23N,142-02.53E,127,19.778,33.5438
596,2021/9/24,9:55,42-21.00N,142-02.95E,127,19.725,33.5333
597,2021/9/24,9:56,42-20.76N,142-03.36E,127,19.718,33.5239
598,2021/9/24,9:57,42-20.53N,142-03.77E,127,19.705,33.513
599,2021/9/24,9:58,42-20.29N,142-04.19E,127,19.683,33.5072
600,2021/9/24,9:59,42-20.06N,142-04.60E,127,19.664,33.5104
601,2021/9/24,10:00,42-19.83N,142-05.01E,127,19.638,33.5049
602,2021/9/24,10:01,42-19.59N,142-05.43E,127,19.625,33.499
603,2021/9/24,10:02,42-19.37N,142-05.83E,127,19.618,33.4904
604,2021/9/24,10:03,42-19.14N,142-06.24E,127,19.607,33.4792
605,2021/9/24,10:04,42-18.91N,142-06.64E,127,19.618,33.4706
606,2021/9/24,10:05,42-18.69N,142-07.04E,126,19.625,33.4633
607,2021/9/24,10:06,42-18.46N,142-07.45E,127,19.584,33.4647
608,2021/9/24,10:07,42-18.23N,142-07.86E,127,19.563,33.4569
609,2021/9/24,10:08,42-18.01N,142-08.25E,127,19.558,33.4408
610,2021/9/24,10:09,42-17.78N,142-08.66E,127,19.577,33.434
611,2021/9/24,10:10,42-17.56N,142-09.06E,127,19.566,33.4282
612,2021/9/24,10:11,42-17.34N,142-09.46E,126,19.549,33.4227
613,2021/9/24,10:12,42-17.11N,142-09.87E,127,19.52,33.4177
614,2021/9/24,10:13,42-16.88N,142-10.26E,126,19.503,33.4131
615,2021/9/24,10:14,42-16.66N,142-10.67E,126,19.499,33.4117
616,2021/9/24,10:15,42-16.44N,142-11.07E,127,19.49,33.4106
617,2021/9/24,10:16,42-16.21N,142-11.48E,126,19.5,33.4124
618,2021/9/24,10:17,42-15.99N,142-11.88E,126,19.527,33.4092
619,2021/9/24,10:18,42-15.77N,142-12.28E,126,19.528,33.4044
620,2021/9/24,10:19,42-15.54N,142-12.69E,126,19.535,33.388
621,2021/9/24,10:20,42-15.32N,142-13.08E,127,19.544,33.3816
622,2021/9/24,10:21,42-15.09N,142-13.49E,127,19.54,33.3612
623,2021/9/24,10:22,42-14.87N,142-13.89E,126,19.516,33.3372
624,2021/9/24,10:23,42-14.65N,142-14.30E,127,19.51,33.3152
625,2021/9/24,10:24,42-14.42N,142-14.69E,126,19.492,33.2943
626,2021/9/24,10:25,42-14.20N,142-15.10E,125,19.516,33.2809
627,2021/9/24,10:26,42-14.00N,142-15.52E,121,19.555,33.2797
628,2021/9/24,10:27,42-13.81N,142-15.96E,120,19.555,33.2806
629,2021/9/24,10:28,42-13.63N,142-16.39E,119,19.531,33.2751
630,2021/9/24,10:29,42-13.45N,142-16.82E,120,19.509,33.2723
631,2021/9/24,10:30,42-13.26N,142-17.25E,120,19.466,33.2603
632,2021/9/24,10:31,42-13.04N,142-17.75E,120,19.421,33.2588
633,2021/9/24,10:32,42-12.86N,142-18.18E,120,19.403,33.2517
634,2021/9/24,10:33,42-12.66N,142-18.62E,120,19.377,33.2487
635,2021/9/24,10:34,42-12.48N,142-19.04E,120,19.386,33.2471
636,2021/9/24,10:35,42-12.28N,142-19.48E,120,19.401,33.2454
637,2021/9/24,10:36,42-12.09N,142-19.91E,120,19.4,33.2475
638,2021/9/24,10:37,42-11.90N,142-20.33E,120,19.411,33.2554
639,2021/9/24,10:38,42-11.70N,142-20.77E,120,19.406,33.2493
640,2021/9/24,10:39,42-11.52N,142-21.20E,120,19.408,33.2495
641,2021/9/24,10:40,42-11.32N,142-21.63E,120,19.417,33.2501
642,2021/9/24,10:41,42-11.13N,142-22.06E,120,19.43,33.2499
643,2021/9/24,10:42,42-10.94N,142-22.49E,120,19.44,33.2509
644,2021/9/24,10:43,42-10.75N,142-22.92E,120,19.417,33.2594
645,2021/9/24,10:44,42-10.57N,142-23.30E,121,19.418,33.2583
646,2021/9/24,10:45,42-10.39N,142-23.72E,121,19.369,33.2435
647,2021/9/24,10:46,42-10.18N,142-24.16E,121,19.332,33.2259
648,2021/9/24,10:47,42-10.00N,142-24.58E,120,19.313,33.2151
649,2021/9/24,10:48,42-09.80N,142-25.02E,120,19.308,33.1999
650,2021/9/24,10:49,42-09.58N,142-25.51E,121,19.327,33.2045
651,2021/9/24,10:50,42-09.38N,142-25.95E,120,19.346,33.2177
652,2021/9/24,10:51,42-09.19N,142-26.37E,121,19.38,33.2334
653,2021/9/24,10:52,42-09.00N,142-26.79E,121,19.419,33.2388
654,2021/9/24,10:53,42-08.81N,142-27.22E,121,19.406,33.2711
655,2021/9/24,10:54,42-08.61N,142-27.65E,121,19.469,33.2808
656,2021/9/24,10:55,42-08.42N,142-28.07E,121,19.497,33.2984
657,2021/9/24,10:56,42-08.26N,142-28.43E,120,19.529,33.3272
658,2021/9/24,10:57,42-08.07N,142-28.86E,121,19.542,33.3368
659,2021/9/24,10:58,42-07.88N,142-29.28E,121,19.559,33.3519
660,2021/9/24,10:59,42-07.68N,142-29.71E,121,19.578,33.3678
661,2021/9/24,11:00,42-07.47N,142-30.18E,121,19.6,33.3814
662,2021/9/24,11:01,42-07.30N,142-30.56E,121,19.625,33.3977
663,2021/9/24,11:02,42-07.11N,142-30.98E,121,19.627,33.4057
664,2021/9/24,11:03,42-06.92N,142-31.40E,121,19.597,33.4151
665,2021/9/24,11:04,42-06.73N,142-31.83E,121,19.573,33.4136
666,2021/9/24,11:05,42-06.54N,142-32.24E,121,19.517,33.4047
667,2021/9/24,11:06,42-06.35N,142-32.67E,121,19.446,33.3919
668,2021/9/24,11:07,42-06.16N,142-33.09E,121,19.377,33.3688
669,2021/9/24,11:08,42-05.97N,142-33.50E,121,19.334,33.3421
670,2021/9/24,11:09,42-05.78N,142-33.92E,120,19.413,33.3132
671,2021/9/24,11:10,42-05.59N,142-34.35E,121,19.617,33.3044
672,2021/9/24,11:11,42-05.41N,142-34.76E,120,19.732,33.3361
673,2021/9/24,11:12,42-05.22N,142-35.18E,121,19.783,33.3919
674,2021/9/24,11:13,42-05.03N,142-35.61E,119,19.996,33.4111
675,2021/9/24,11:14,42-04.85N,142-36.03E,119,20.121,33.4376
676,2021/9/24,11:15,42-04.67N,142-36.46E,119,20.201,33.4722
677,2021/9/24,11:16,42-04.49N,142-36.88E,119,20.222,33.4715
678,2021/9/24,11:17,42-04.32N,142-37.29E,119,20.193,33.4847
679,2021/9/24,11:18,42-04.14N,142-37.72E,119,20.008,33.4837
680,2021/9/24,11:19,42-03.96N,142-38.15E,119,19.805,33.4381
681,2021/9/24,11:20,42-03.78N,142-38.56E,119,19.363,33.3326
682,2021/9/24,11:21,42-03.60N,142-38.99E,119,19.12,33.2089
683,2021/9/24,11:22,42-03.43N,142-39.40E,119,18.866,33.0591
684,2021/9/24,11:23,42-03.25N,142-39.83E,119,18.834,32.9609
685,2021/9/24,11:24,42-03.07N,142-40.24E,119,19.076,32.9176
686,2021/9/24,11:25,42-02.90N,142-40.66E,119,19.592,32.9823
687,2021/9/24,11:26,42-02.72N,142-41.08E,119,19.709,33.1102
688,2021/9/24,11:27,42-02.54N,142-41.49E,119,19.654,33.199
689,2021/9/24,11:28,42-02.36N,142-41.91E,119,19.591,33.2192
690,2021/9/24,11:29,42-02.19N,142-42.33E,119,19.459,33.2232
691,2021/9/24,11:30,42-02.01N,142-42.74E,119,19.542,33.2011
692,2021/9/24,11:31,42-01.84N,142-43.17E,119,19.65,33.1916
693,2021/9/24,11:32,42-01.66N,142-43.58E,119,19.638,33.2284
694,2021/9/24,11:33,42-01.49N,142-43.99E,119,19.605,33.2452
695,2021/9/24,11:34,42-01.31N,142-44.41E,120,19.606,33.2391
696,2021/9/24,11:35,42-01.13N,142-44.82E,119,19.607,33.2373
697,2021/9/24,11:36,42-00.96N,142-45.23E,119,19.486,33.2363
698,2021/9/24,11:37,42-00.78N,142-45.65E,119,19.444,33.2195
699,2021/9/24,11:38,42-00.61N,142-46.06E,119,19.336,33.1901
700,2021/9/24,11:39,42-00.44N,142-46.48E,119,19.271,33.1593
701,2021/9/24,11:40,42-00.27N,142-46.89E,119,19.245,33.083
702,2021/9/24,11:41,42-00.09N,142-47.31E,118,18.992,33.0254
703,2021/9/24,11:42,41-59.90N,142-47.78E,117,18.815,32.9679
704,2021/9/24,11:43,41-59.74N,142-48.22E,117,18.725,32.8721
705,2021/9/24,11:44,41-59.58N,142-48.64E,117,18.731,32.7487
706,2021/9/24,11:45,41-59.41N,142-49.07E,117,18.631,32.6753
707,2021/9/24,11:46,41-59.25N,142-49.50E,117,18.504,32.6235
708,2021/9/24,11:47,41-59.08N,142-49.91E,120,18.318,32.5718
709,2021/9/24,11:48,41-58.90N,142-50.32E,120,18.147,32.5207
710,2021/9/24,11:49,41-58.71N,142-50.74E,121,18.273,32.4404
711,2021/9/24,11:50,41-58.53N,142-51.14E,121,18.96,32.4704
712,2021/9/24,11:51,41-58.34N,142-51.56E,120,19.426,32.7009
713,2021/9/24,11:52,41-58.16N,142-51.97E,121,19.754,32.9339
714,2021/9/24,11:53,41-57.97N,142-52.38E,120,19.805,33.2355
715,2021/9/24,11:54,41-57.80N,142-52.79E,120,19.774,33.3169
716,2021/9/24,11:55,41-57.62N,142-53.21E,120,19.84,33.3882
717,2021/9/24,11:56,41-57.44N,142-53.63E,120,19.829,33.4053
718,2021/9/24,11:57,41-57.26N,142-54.04E,120,19.557,33.4175
719,2021/9/24,11:58,41-57.08N,142-54.46E,120,19.217,33.3826
720,2021/9/24,11:59,41-56.90N,142-54.87E,120,18.94,33.294
721,2021/9/24,12:00,41-56.71N,142-55.30E,120,17.941,33.1493
722,2021/9/24,12:01,41-56.56N,142-55.65E,120,17.193,33.0069
723,2021/9/24,12:02,41-56.38N,142-56.07E,120,16.851,32.7089
724,2021/9/24,12:03,41-56.20N,142-56.48E,120,16.752,32.4816
725,2021/9/24,12:04,41-56.02N,142-56.90E,120,16.677,32.392
726,2021/9/24,12:05,41-55.83N,142-57.31E,120,16.633,32.3601
727,2021/9/24,12:06,41-55.65N,142-57.73E,120,16.625,32.3163
728,2021/9/24,12:07,41-55.46N,142-58.14E,120,16.648,32.2913
729,2021/9/24,12:08,41-55.28N,142-58.56E,120,16.661,32.2775
730,2021/9/24,12:09,41-55.09N,142-58.97E,121,16.757,32.2632
731,2021/9/24,12:10,41-54.90N,142-59.39E,121,16.779,32.2562
732,2021/9/24,12:11,41-54.71N,142-59.79E,122,16.662,32.2529
733,2021/9/24,12:12,41-54.52N,143-00.21E,122,16.641,32.2137
734,2021/9/24,12:13,41-54.33N,143-00.60E,123,16.701,32.1574
735,2021/9/24,12:14,41-54.13N,143-01.01E,123,16.753,32.1263
736,2021/9/24,12:15,41-53.93N,143-01.40E,123,16.76,32.1183
737,2021/9/24,12:16,41-53.74N,143-01.81E,123,16.852,32.1067
738,2021/9/24,12:17,41-53.54N,143-02.22E,123,16.917,32.1185
739,2021/9/24,12:18,41-53.34N,143-02.61E,123,16.905,32.1241
740,2021/9/24,12:19,41-53.14N,143-03.02E,123,16.912,32.1358
741,2021/9/24,12:20,41-52.94N,143-03.42E,124,16.914,32.1637
742,2021/9/24,12:21,41-52.74N,143-03.82E,123,16.931,32.1536
743,2021/9/24,12:22,41-52.54N,143-04.22E,122,16.697,32.1279
744,2021/9/24,12:23,41-52.35N,143-04.62E,122,16.319,32.2221
745,2021/9/24,12:24,41-52.15N,143-05.03E,122,16.213,32.3462
746,2021/9/24,12:25,41-51.96N,143-05.43E,122,16.27,32.4446
747,2021/9/24,12:26,41-51.77N,143-05.84E,122,16.052,32.5516
748,2021/9/24,12:27,41-51.58N,143-06.25E,121,16.286,32.578
749,2021/9/24,12:28,41-51.39N,143-06.66E,121,16.634,32.5887
750,2021/9/24,12:29,41-51.20N,143-07.06E,122,16.89,32.6765
751,2021/9/24,12:30,41-51.00N,143-07.52E,120,16.895,32.6675
752,2021/9/24,12:31,41-50.81N,143-07.95E,119,16.596,32.6659
753,2021/9/24,12:32,41-50.64N,143-08.37E,119,16.524,32.6084
754,2021/9/24,12:33,41-50.46N,143-08.78E,119,16.531,32.5284
755,2021/9/24,12:34,41-50.29N,143-09.20E,119,16.545,32.481
756,2021/9/24,12:35,41-50.11N,143-09.62E,119,16.532,32.476
757,2021/9/24,12:36,41-49.93N,143-10.03E,119,16.495,32.469
758,2021/9/24,12:37,41-49.76N,143-10.46E,118,16.512,32.4475
759,2021/9/24,12:38,41-49.58N,143-10.87E,119,16.462,32.4476
760,2021/9/24,12:39,41-49.40N,143-11.30E,119,16.317,32.4691
761,2021/9/24,12:40,41-49.23N,143-11.72E,117,16.295,32.4497
762,2021/9/24,12:41,41-49.07N,143-12.15E,116,16.294,32.44
763,2021/9/24,12:42,41-48.92N,143-12.58E,113,16.328,32.4312
764,2021/9/24,12:43,41-48.81N,143-13.04E,105,16.354,32.4349
765,2021/9/24,12:44,41-48.77N,143-13.51E,95,16.511,32.4444
766,2021/9/24,12:45,41-48.76N,143-14.00E,91,16.579,32.4625
767,2021/9/24,12:46,41-48.75N,143-14.41E,89,16.576,32.4832
768,2021/9/24,12:47,41-48.76N,143-14.90E,89,16.574,32.49
769,2021/9/24,12:48,41-48.76N,143-15.37E,89,16.346,32.4915
770,2021/9/24,12:49,41-48.77N,143-15.87E,88,16.352,32.4842
771,2021/9/24,12:50,41-48.77N,143-16.35E,89,16.479,32.4686
772,2021/9/24,12:51,41-48.78N,143-16.84E,89,16.516,32.4776
773,2021/9/24,12:52,41-48.78N,143-17.33E,89,16.331,32.4828
774,2021/9/24,12:53,41-48.79N,143-17.81E,89,16.305,32.4802
775,2021/9/24,12:54,41-48.79N,143-18.30E,89,16.261,32.4742
776,2021/9/24,12:55,41-48.79N,143-18.79E,89,16.228,32.4681
777,2021/9/24,12:56,41-48.79N,143-19.27E,89,16.235,32.4702
778,2021/9/24,12:57,41-48.80N,143-19.77E,89,16.216,32.4741
779,2021/9/24,12:58,41-48.80N,143-20.26E,89,16.207,32.4792
780,2021/9/24,12:59,41-48.83N,143-20.75E,80,16.181,32.4824
781,2021/9/24,13:00,41-48.98N,143-21.16E,53,16.148,32.4879
782,2021/9/24,13:01,41-49.25N,143-21.45E,34,16.105,32.4865
783,2021/9/24,13:02,41-49.56N,143-21.69E,28,16.221,32.4782
784,2021/9/24,13:03,41-49.87N,143-21.92E,28,16.243,32.5143
785,2021/9/24,13:04,41-50.18N,143-22.14E,28,16.262,32.5646
786,2021/9/24,13:05,41-50.50N,143-22.37E,29,16.249,32.5725
787,2021/9/24,13:06,41-50.80N,143-22.61E,30,16.264,32.5678
788,2021/9/24,13:07,41-51.11N,143-22.85E,30,16.257,32.5633
789,2021/9/24,13:08,41-51.41N,143-23.08E,30,16.168,32.5687
790,2021/9/24,13:09,41-51.70N,143-23.31E,29,16.13,32.5797
791,2021/9/24,13:10,41-52.00N,143-23.54E,30,16.093,32.5957
792,2021/9/24,13:11,41-52.30N,143-23.76E,29,15.989,32.597
793,2021/9/24,13:12,41-52.63N,143-24.03E,30,15.918,32.5967
794,2021/9/24,13:13,41-52.88N,143-24.22E,30,15.886,32.5814
795,2021/9/24,13:14,41-53.18N,143-24.45E,29,15.868,32.5699
796,2021/9/24,13:15,41-53.47N,143-24.67E,30,15.875,32.5657
797,2021/9/24,13:16,41-53.76N,143-24.90E,29,15.894,32.5781
798,2021/9/24,13:17,41-54.06N,143-25.12E,29,15.897,32.5822
799,2021/9/24,13:18,41-54.35N,143-25.34E,29,15.864,32.5883
800,2021/9/24,13:19,41-54.65N,143-25.57E,29,15.835,32.5886
801,2021/9/24,13:20,41-54.94N,143-25.79E,29,15.916,32.5813
802,2021/9/24,13:21,41-55.24N,143-26.01E,29,15.993,32.5795
803,2021/9/24,13:22,41-55.53N,143-26.23E,29,16.007,32.5936
804,2021/9/24,13:23,41-55.82N,143-26.45E,29,16.012,32.5953
805,2021/9/24,13:24,41-56.12N,143-26.68E,29,16.011,32.5903
806,2021/9/24,13:25,41-56.41N,143-26.90E,29,15.977,32.5864
807,2021/9/24,13:26,41-56.71N,143-27.12E,29,15.93,32.5912
808,2021/9/24,13:27,41-57.01N,143-27.35E,29,15.886,32.5955
809,2021/9/24,13:28,41-57.29N,143-27.57E,29,15.774,32.6094
810,2021/9/24,13:29,41-57.59N,143-27.79E,29,15.729,32.6238
811,2021/9/24,13:30,41-57.88N,143-28.01E,29,15.676,32.6373
812,2021/9/24,13:31,41-58.18N,143-28.23E,28,15.727,32.6225
813,2021/9/24,13:32,41-58.47N,143-28.44E,28,15.933,32.5769
814,2021/9/24,13:33,41-58.77N,143-28.66E,28,16.057,32.5146
815,2021/9/24,13:34,41-59.06N,143-28.87E,28,16.161,32.4309
816,2021/9/24,13:35,41-59.36N,143-29.08E,28,16.273,32.3732
817,2021/9/24,13:36,41-59.66N,143-29.30E,28,16.278,32.312
818,2021/9/24,13:37,41-59.96N,143-29.51E,27,16.315,32.2795
819,2021/9/24,13:38,42-00.27N,143-29.73E,27,16.242,32.2529
820,2021/9/24,13:39,42-00.56N,143-29.94E,28,16.136,32.221
821,2021/9/24,13:40,42-00.86N,143-30.15E,28,16.124,32.3027
822,2021/9/24,13:41,42-01.15N,143-30.36E,27,16.118,32.3261
823,2021/9/24,13:42,42-01.46N,143-30.58E,27,16.124,32.343
824,2021/9/24,13:43,42-01.75N,143-30.79E,28,16.111,32.358
825,2021/9/24,13:44,42-02.05N,143-31.02E,29,16.066,32.3499
826,2021/9/24,13:45,42-02.34N,143-31.25E,29,15.877,32.3626
827,2021/9/24,13:46,42-02.64N,143-31.48E,30,15.681,32.4299
828,2021/9/24,13:47,42-02.94N,143-31.70E,28,15.596,32.5255
829,2021/9/24,13:48,42-03.24N,143-31.91E,28,15.632,32.6312
830,2021/9/24,13:49,42-03.54N,143-32.14E,30,15.464,32.6298
831,2021/9/24,13:50,42-03.83N,143-32.38E,30,15.466,32.6856
832,2021/9/24,13:51,42-04.13N,143-32.61E,30,15.737,32.6973
833,2021/9/24,13:52,42-04.42N,143-32.85E,31,15.885,32.6871
834,2021/9/24,13:53,42-04.72N,143-33.09E,31,16.004,32.6294
835,2021/9/24,13:54,42-05.01N,143-33.33E,31,16.114,32.5668
836,2021/9/24,13:55,42-05.30N,143-33.56E,30,16.212,32.4982
837,2021/9/24,13:56,42-05.59N,143-33.80E,31,16.339,32.4489
838,2021/9/24,13:57,42-05.89N,143-34.03E,31,16.355,32.3937
839,2021/9/24,13:58,42-06.18N,143-34.27E,31,16.377,32.3894
840,2021/9/24,13:59,42-06.47N,143-34.51E,31,16.443,32.4142
841,2021/9/24,14:00,42-06.76N,143-34.75E,31,16.45,32.4695
842,2021/9/24,14:01,42-07.05N,143-34.99E,31,16.464,32.5204
843,2021/9/24,14:02,42-07.35N,143-35.23E,32,16.356,32.5707
844,2021/9/24,14:03,42-07.63N,143-35.47E,31,16.281,32.5773
845,2021/9/24,14:04,42-07.93N,143-35.72E,31,16.297,32.5988
846,2021/9/24,14:05,42-08.22N,143-35.95E,31,16.44,32.6842
847,2021/9/24,14:06,42-08.51N,143-36.20E,32,16.608,32.7213
848,2021/9/24,14:07,42-08.80N,143-36.44E,31,16.648,32.7275
849,2021/9/24,14:08,42-09.09N,143-36.68E,31,16.61,32.7254
850,2021/9/24,14:09,42-09.39N,143-36.92E,31,16.579,32.7253
851,2021/9/24,14:10,42-09.68N,143-37.17E,31,16.552,32.7141
852,2021/9/24,14:11,42-09.98N,143-37.41E,30,16.482,32.7051
853,2021/9/24,14:12,42-10.28N,143-37.65E,31,16.294,32.7097
854,2021/9/24,14:13,42-10.57N,143-37.89E,31,16.228,32.6863
855,2021/9/24,14:14,42-10.87N,143-38.14E,32,16.264,32.6456
856,2021/9/24,14:15,42-11.17N,143-38.39E,30,16.173,32.6231
857,2021/9/24,14:16,42-11.46N,143-38.62E,30,16.346,32.6266
858,2021/9/24,14:17,42-11.76N,143-38.87E,31,16.458,32.609
859,2021/9/24,14:18,42-12.06N,143-39.11E,30,16.588,32.5812
860,2021/9/24,14:19,42-12.36N,143-39.35E,31,16.623,32.5374
861,2021/9/24,14:20,42-12.66N,143-39.60E,31,16.632,32.4804
862,2021/9/24,14:21,42-12.96N,143-39.84E,31,16.634,32.4562
863,2021/9/24,14:22,42-13.26N,143-40.08E,31,16.61,32.4255
864,2021/9/24,14:23,42-13.56N,143-40.33E,31,16.596,32.3815
865,2021/9/24,14:24,42-13.85N,143-40.57E,31,16.595,32.356
866,2021/9/24,14:25,42-14.14N,143-40.81E,31,16.586,32.344
867,2021/9/24,14:26,42-14.43N,143-41.05E,31,16.551,32.3306
868,2021/9/24,14:27,42-14.72N,143-41.29E,31,16.492,32.3284
869,2021/9/24,14:28,42-15.01N,143-41.53E,31,16.435,32.3304
870,2021/9/24,14:29,42-15.30N,143-41.76E,31,16.337,32.3336
871,2021/9/24,14:30,42-15.60N,143-42.00E,30,16.219,32.3346
872,2021/9/24,14:31,42-15.91N,143-42.25E,30,16.155,32.3261
873,2021/9/24,14:32,42-16.22N,143-42.50E,30,16.14,32.3194
874,2021/9/24,14:33,42-16.51N,143-42.73E,30,16.108,32.3275
875,2021/9/24,14:34,42-16.81N,143-42.97E,31,16.096,32.3243
876,2021/9/24,14:35,42-17.07N,143-43.17E,30,16.118,32.3289
877,2021/9/24,14:36,42-17.35N,143-43.40E,30,16.138,32.3243
878,2021/9/24,14:37,42-17.65N,143-43.64E,30,16.136,32.3276
879,2021/9/24,14:38,42-17.94N,143-43.87E,30,16.134,32.3304
880,2021/9/24,14:39,42-18.23N,143-44.10E,31,16.098,32.3308
881,2021/9/24,14:40,42-18.52N,143-44.34E,30,16.061,32.3342
882,2021/9/24,14:41,42-18.82N,143-44.58E,30,16.03,32.3337
883,2021/9/24,14:42,42-19.11N,143-44.81E,30,15.99,32.3404
884,2021/9/24,14:43,42-19.40N,143-45.04E,29,15.896,32.3457
885,2021/9/24,14:44,42-19.70N,143-45.26E,28,15.867,32.3472
886,2021/9/24,14:45,42-20.00N,143-45.48E,28,15.888,32.3431
887,2021/9/24,14:46,42-20.30N,143-45.70E,28,15.935,32.3434
888,2021/9/24,14:47,42-20.60N,143-45.92E,28,15.977,32.335
889,2021/9/24,14:48,42-20.89N,143-46.14E,28,15.997,32.3363
890,2021/9/24,14:49,42-21.20N,143-46.37E,28,16.019,32.3314
891,2021/9/24,14:50,42-21.50N,143-46.59E,28,16.003,32.3294
892,2021/9/24,14:51,42-21.79N,143-46.81E,29,16.012,32.328
893,2021/9/24,14:52,42-22.09N,143-47.04E,29,16.008,32.3154
894,2021/9/24,14:53,42-22.38N,143-47.26E,29,16.017,32.3167
895,2021/9/24,14:54,42-22.68N,143-47.49E,29,16.024,32.3125
896,2021/9/24,14:55,42-22.97N,143-47.71E,30,16,32.302
897,2021/9/24,14:56,42-23.27N,143-47.94E,29,15.985,32.2944
898,2021/9/24,14:57,42-23.56N,143-48.16E,29,16.01,32.2905
899,2021/9/24,14:58,42-23.86N,143-48.39E,29,16.027,32.2961
900,2021/9/24,14:59,42-24.16N,143-48.63E,29,16.036,32.2972
901,2021/9/24,15:00,42-24.45N,143-48.85E,29,16.02,32.2984
902,2021/9/24,15:01,42-24.75N,143-49.07E,29,16.061,32.2904
903,2021/9/24,15:02,42-25.04N,143-49.31E,30,16.106,32.3033
904,2021/9/24,15:03,42-25.33N,143-49.53E,28,16.113,32.3174
905,2021/9/24,15:04,42-25.63N,143-49.70E,20,16.02,32.3379
906,2021/9/24,15:05,42-25.94N,143-49.84E,18,15.969,32.3625
907,2021/9/24,15:06,42-26.26N,143-49.99E,17,15.858,32.3768
908,2021/9/24,15:07,42-26.56N,143-50.12E,18,15.889,32.3986
909,2021/9/24,15:08,42-26.88N,143-50.25E,14,15.848,32.4721
910,2021/9/24,15:09,42-27.18N,143-50.36E,16,15.943,32.5775
911,2021/9/24,15:10,42-27.49N,143-50.49E,17,16.056,32.6205
912,2021/9/24,15:11,42-27.78N,143-50.62E,17,16.101,32.568
913,2021/9/24,15:12,42-28.08N,143-50.74E,16,16.074,32.5046
914,2021/9/24,15:13,42-28.39N,143-50.86E,16,16.003,32.4516
915,2021/9/24,15:14,42-28.70N,143-50.98E,16,15.96,32.4294
916,2021/9/24,15:15,42-28.99N,143-51.11E,17,15.92,32.4292
917,2021/9/24,15:16,42-29.30N,143-51.24E,17,15.828,32.4353
918,2021/9/24,15:17,42-29.59N,143-51.37E,19,15.719,32.4358
919,2021/9/24,15:18,42-29.89N,143-51.53E,21,15.635,32.4547
920,2021/9/24,15:19,42-30.18N,143-51.71E,25,15.537,32.5159
921,2021/9/24,15:20,42-30.45N,143-51.90E,29,15.571,32.5937
922,2021/9/24,15:21,42-30.72N,143-52.12E,31,15.695,32.6921
923,2021/9/24,15:22,42-30.99N,143-52.35E,31,15.807,32.7797